Content
SEND FEEDBACK

Daily
Averages
Monthly
Summary
United States of America

YIGO, GUAM


Home > North America > United States > Guam
Elevation: 530 feet     Latitude: 13 32N     Longitude: 144 53E

WEATHER
 
SELECT A DAY
Number of Records: 215,702;   Date Range: 1/1/95 - 12/24/14
 
SHARE

PRINT THIS DATA

[ ← Previous Day ]
WEATHER ALMANAC - DECEMBER 25, 2013
[ Next Day → ]
[ °C ]   °F
Weather ElementAverageHighLow
Temperature79.6 °F84.2 °F (1:33 pm)75.2 °F (10:32 am)
Dewpoint75.3 °F78.8 °F (11:14 am)73 °F (1:54 am)
Humidity86.9 %100 % (10:32 am)74 % (8:54 am)
Barometer29.89 in29.95 in (10:22 am)29.83 in (1:54 pm)
Wind Speed18.8 mph26.5 mph (10:22 am)
Wind Gust39.1 mph (10:22 am)
Weather ElementAverage
Visibility8.1 mi
Wind DirectionENE (66.8 °)

Weather ElementTotal
Precipitation0.67 in
Cooling Degree Days14.7 (Base 65)
Growing Degree Days29.7 (Base 50)
Averaged from 37 records on December 25, 2013
WEATHER CONDITIONS BREAKOUT
WIND DIRECTION BREAKOUT
WEATHER BY HOUR - DECEMBER 25, 2013
[ °C ]   °F
Local TimeTemperatureDewpointHumidityBarometerVisibilityWind DirectionWind SpeedGust SpeedPrecipitationEventsConditions
1:54 AM80.1 °F73.0 °F79 %29.89 in10.0 miNE (50°)19.6 mphMostly Cloudy
2:54 AM80.1 °F73.0 °F79 %29.87 in10.0 miNE (40°)17.3 mph31.1 mphMostly Cloudy
3:54 AM79.0 °F73.0 °F82 %29.87 in10.0 miENE (60°)16.1 mph25.3 mphPartly Cloudy
4:54 AM79.0 °F73.9 °F84 %29.87 in10.0 miNE (50°)16.1 mph24.2 mphMostly Cloudy
5:54 AM79.0 °F73.9 °F84 %29.88 in10.0 miNE (50°)18.4 mph24.2 mphScattered Clouds
6:54 AM79.0 °F73.9 °F84 %29.89 in10.0 miNE (50°)18.4 mphMostly Cloudy
7:54 AM80.1 °F73.0 °F79 %29.91 in10.0 miENE (60°)21.9 mph31.1 mphPartly Cloudy
8:54 AM82.9 °F73.9 °F74 %29.92 in10.0 miENE (70°)16.1 mphMostly Cloudy
9:54 AM79.0 °F75.9 °F90 %29.93 in6.0 miEast (90°)19.6 mph32.2 mph0.01 inRainLight Rain
10:04 AM78.8 °F75.2 °F89 %29.94 in6.0 miEast (80°)20.7 mph29.9 mph0.00 inRainLight Rain
10:22 AM77.0 °F75.2 °F94 %29.95 in2.5 miEast (80°)26.5 mph39.1 mph0.00 inRainRain
10:32 AM75.2 °F75.2 °F100 %29.94 in3.0 miEast (90°)13.8 mph29.9 mph0.03 inRainRain
10:54 AM79.0 °F75.9 °F90 %29.91 in10.0 miEast (90°)11.5 mph0.03 inScattered Clouds
11:14 AM82.4 °F78.8 °F89 %29.92 in10.0 miENE (70°)16.1 mphMostly Cloudy
11:54 AM81.0 °F77.0 °F88 %29.88 in7.0 miENE (60°)24.2 mph35.7 mph0.00 inRainRain
12:01 PM80.6 °F78.8 °F94 %29.90 in10.0 miENE (70°)19.6 mph35.7 mph0.02 inScattered Clouds
12:54 PM82.9 °F77.0 °F82 %29.86 in10.0 miENE (70°)21.9 mph28.8 mph0.02 inMostly Cloudy
1:33 PM84.2 °F75.2 °F74 %29.86 in10.0 miENE (70°)24.2 mph33.4 mphMostly Cloudy
1:54 PM84.0 °F75.0 °F74 %29.83 in10.0 miENE (60°)19.6 mph28.8 mphMostly Cloudy
2:54 PM81.0 °F77.0 °F88 %29.83 in8.0 miENE (60°)19.6 mph27.6 mph0.01 inRainLight Rain
3:54 PM82.0 °F75.0 °F79 %29.83 in10.0 miENE (60°)19.6 mph26.5 mphMostly Cloudy
4:54 PM82.0 °F75.0 °F79 %29.83 in10.0 miENE (60°)20.7 mph27.6 mphMostly Cloudy
5:35 PM80.6 °F75.2 °F84 %29.86 in10.0 miENE (60°)19.6 mph26.5 mphMostly Cloudy
5:46 PM80.6 °F75.2 °F84 %29.86 in10.0 miENE (60°)18.4 mph32.2 mphMostly Cloudy
5:54 PM81.0 °F75.9 °F85 %29.84 in10.0 miENE (60°)19.6 mph26.5 mphMostly Cloudy
6:03 PM80.6 °F75.2 °F84 %29.86 in10.0 miENE (60°)18.4 mphMostly Cloudy
6:54 PM81.0 °F75.0 °F82 %29.86 in10.0 miENE (60°)21.9 mph31.1 mphScattered Clouds
7:54 PM80.1 °F75.9 °F87 %29.88 in10.0 miNE (50°)19.6 mph26.5 mphScattered Clouds
8:54 PM77.0 °F73.9 °F90 %29.90 in4.0 miEast (90°)16.1 mph23.0 mph0.02 inRainRain
9:07 PM77.0 °F75.2 °F94 %29.92 in3.0 miEast (90°)19.6 mph29.9 mph0.06 inRainHeavy Rain
9:15 PM77.0 °F75.2 °F94 %29.92 in7.0 miENE (70°)18.4 mph25.3 mph0.06 inRainLight Rain
9:54 PM78.1 °F75.9 °F93 %29.90 in10.0 miENE (70°)15.0 mph0.06 inMostly Cloudy
10:41 PM77.0 °F75.2 °F94 %29.93 in2.0 miEast (90°)11.5 mph18.4 mph0.08 inRainHeavy Rain
10:54 PM78.1 °F77.0 °F96 %29.91 in4.0 miENE (60°)19.6 mph24.2 mph0.12 inRainHeavy Rain
11:02 PM75.2 °F75.2 °F100 %29.93 in3.0 miENE (70°)23.0 mph28.8 mph0.04 inRainHeavy Rain
11:05 PM75.2 °F75.2 °F100 %29.93 in3.0 miENE (70°)21.9 mph29.9 mph0.04 inRainRain
11:54 PM78.1 °F75.9 °F93 %29.89 in10.0 miENE (70°)11.5 mph0.07 inScattered Clouds
Hourly data recorded from PGUM, located miles away from Yigo, Guam







STORIES FROM OUR PARTNERS